﻿測定場所 (Monitoring sites),日付 (Measurement date),時間 (Measurement time),線量率 最大値 (max) μGy/h,線量率 最小値 (min) μGy/h,線量率 平均値 (average) μGy/h,
足立 (Adachi),2012-07-15,23:01～24:00,0.0654,0.0594,0.0623,
足立 (Adachi),2012-07-15,22:01～23:00,0.0652,0.0591,0.0622,
足立 (Adachi),2012-07-15,21:01～22:00,0.0661,0.0593,0.0625,
足立 (Adachi),2012-07-15,20:01～21:00,0.0663,0.0588,0.0625,
足立 (Adachi),2012-07-15,19:01～20:00,0.0663,0.0597,0.0629,
足立 (Adachi),2012-07-15,18:01～19:00,0.0671,0.0579,0.0623,
足立 (Adachi),2012-07-15,17:01～18:00,0.0648,0.0594,0.0622,
足立 (Adachi),2012-07-15,16:01～17:00,0.0663,0.0594,0.0623,
足立 (Adachi),2012-07-15,15:01～16:00,0.0660,0.0574,0.0623,
足立 (Adachi),2012-07-15,14:01～15:00,0.0657,0.0566,0.0621,
足立 (Adachi),2012-07-15,13:01～14:00,0.0662,0.0584,0.0623,
足立 (Adachi),2012-07-15,12:01～13:00,0.0655,0.0592,0.0621,
足立 (Adachi),2012-07-15,11:01～12:00,0.0656,0.0587,0.0619,
足立 (Adachi),2012-07-15,10:01～11:00,0.0647,0.0576,0.0614,
足立 (Adachi),2012-07-15,09:01～10:00,0.0653,0.0574,0.0614,
足立 (Adachi),2012-07-15,08:01～09:00,0.0652,0.0584,0.0616,
足立 (Adachi),2012-07-15,07:01～08:00,0.0648,0.0569,0.0619,
足立 (Adachi),2012-07-15,06:01～07:00,0.0641,0.0573,0.0608,
足立 (Adachi),2012-07-15,05:01～06:00,0.0661,0.0589,0.0618,
足立 (Adachi),2012-07-15,04:01～05:00,0.0657,0.0574,0.0618,
足立 (Adachi),2012-07-15,03:01～04:00,0.0665,0.0580,0.0612,
足立 (Adachi),2012-07-15,02:01～03:00,0.0640,0.0586,0.0617,
足立 (Adachi),2012-07-15,01:01～02:00,0.0652,0.0584,0.0614,
足立 (Adachi),2012-07-15,00:01～01:00,0.0660,0.0589,0.0620,
足立 (Adachi),2012-07-14,23:01～24:00,0.0651,0.0583,0.0615,
足立 (Adachi),2012-07-14,22:01～23:00,0.0650,0.0578,0.0614,
足立 (Adachi),2012-07-14,21:01～22:00,0.0650,0.0582,0.0617,
足立 (Adachi),2012-07-14,20:01～21:00,0.0639,0.0586,0.0613,
足立 (Adachi),2012-07-14,19:01～20:00,0.0649,0.0581,0.0619,
足立 (Adachi),2012-07-14,18:01～19:00,0.0644,0.0588,0.0617,
足立 (Adachi),2012-07-14,17:01～18:00,0.0653,0.0577,0.0615,
足立 (Adachi),2012-07-14,16:01～17:00,0.0649,0.0559,0.0615,
足立 (Adachi),2012-07-14,15:01～16:00,0.0648,0.0585,0.0612,
足立 (Adachi),2012-07-14,14:01～15:00,0.0664,0.0582,0.0617,
足立 (Adachi),2012-07-14,13:01～14:00,0.0652,0.0581,0.0615,
足立 (Adachi),2012-07-14,12:01～13:00,0.0643,0.0572,0.0606,
足立 (Adachi),2012-07-14,11:01～12:00,0.0636,0.0574,0.0603,
足立 (Adachi),2012-07-14,10:01～11:00,0.0646,0.0564,0.0605,
足立 (Adachi),2012-07-14,09:01～10:00,0.0637,0.0563,0.0605,
足立 (Adachi),2012-07-14,08:01～09:00,0.0644,0.0551,0.0600,
足立 (Adachi),2012-07-14,07:01～08:00,0.0624,0.0544,0.0594,
足立 (Adachi),2012-07-14,06:01～07:00,0.0678,0.0588,0.0623,
足立 (Adachi),2012-07-14,05:01～06:00,0.0844,0.0634,0.0732,
足立 (Adachi),2012-07-14,04:01～05:00,0.0921,0.0768,0.0839,
足立 (Adachi),2012-07-14,03:01～04:00,0.0875,0.0733,0.0803,
足立 (Adachi),2012-07-14,02:01～03:00,0.0816,0.0683,0.0749,
足立 (Adachi),2012-07-14,01:01～02:00,0.0730,0.0604,0.0660,
足立 (Adachi),2012-07-14,00:01～01:00,0.0654,0.0572,0.0615,
足立 (Adachi),2012-07-13,23:01～24:00,0.0660,0.0587,0.0620,
足立 (Adachi),2012-07-13,22:01～23:00,0.0674,0.0577,0.0626,
足立 (Adachi),2012-07-13,21:01～22:00,0.0659,0.0591,0.0626,
足立 (Adachi),2012-07-13,20:01～21:00,0.0658,0.0589,0.0622,
足立 (Adachi),2012-07-13,19:01～20:00,0.0656,0.0587,0.0627,
足立 (Adachi),2012-07-13,18:01～19:00,0.0645,0.0571,0.0620,
足立 (Adachi),2012-07-13,17:01～18:00,0.0655,0.0588,0.0621,
足立 (Adachi),2012-07-13,16:01～17:00,0.0647,0.0582,0.0616,
足立 (Adachi),2012-07-13,15:01～16:00,0.0658,0.0580,0.0615,
足立 (Adachi),2012-07-13,14:01～15:00,0.0640,0.0576,0.0613,
足立 (Adachi),2012-07-13,13:01～14:00,0.0658,0.0580,0.0616,
足立 (Adachi),2012-07-13,12:01～13:00,0.0648,0.0577,0.0608,
足立 (Adachi),2012-07-13,11:01～12:00,0.0652,0.0583,0.0616,
足立 (Adachi),2012-07-13,10:01～11:00,0.0652,0.0576,0.0612,
足立 (Adachi),2012-07-13,09:01～10:00,0.0635,0.0563,0.0600,
足立 (Adachi),2012-07-13,08:01～09:00,0.0627,0.0567,0.0593,
足立 (Adachi),2012-07-13,07:01～08:00,0.0640,0.0562,0.0606,
足立 (Adachi),2012-07-13,06:01～07:00,0.0622,0.0553,0.0593,
足立 (Adachi),2012-07-13,05:01～06:00,0.0648,0.0567,0.0612,
足立 (Adachi),2012-07-13,04:01～05:00,0.0694,0.0592,0.0639,
足立 (Adachi),2012-07-13,03:01～04:00,0.0813,0.0636,0.0712,
足立 (Adachi),2012-07-13,02:01～03:00,0.0808,0.0721,0.0756,
足立 (Adachi),2012-07-13,01:01～02:00,0.0780,0.0692,0.0733,
足立 (Adachi),2012-07-13,00:01～01:00,0.0829,0.0697,0.0739,
足立 (Adachi),2012-07-12,23:01～24:00,0.0906,0.0739,0.0833,
足立 (Adachi),2012-07-12,22:01～23:00,0.0891,0.0600,0.0712,
足立 (Adachi),2012-07-12,21:01～22:00,0.0678,0.0602,0.0635,
足立 (Adachi),2012-07-12,20:01～21:00,0.0675,0.0600,0.0636,
足立 (Adachi),2012-07-12,19:01～20:00,0.0678,0.0597,0.0636,
足立 (Adachi),2012-07-12,18:01～19:00,0.0667,0.0594,0.0629,
足立 (Adachi),2012-07-12,17:01～18:00,0.0666,0.0581,0.0629,
足立 (Adachi),2012-07-12,16:01～17:00,0.0670,0.0588,0.0632,
足立 (Adachi),2012-07-12,15:01～16:00,0.0671,0.0595,0.0637,
足立 (Adachi),2012-07-12,14:01～15:00,0.0699,0.0614,0.0652,
足立 (Adachi),2012-07-12,13:01～14:00,0.0701,0.0622,0.0663,
足立 (Adachi),2012-07-12,12:01～13:00,0.0687,0.0617,0.0652,
足立 (Adachi),2012-07-12,11:01～12:00,0.0714,0.0627,0.0665,
足立 (Adachi),2012-07-12,10:01～11:00,0.0701,0.0621,0.0657,
足立 (Adachi),2012-07-12,09:01～10:00,0.0668,0.0596,0.0639,
足立 (Adachi),2012-07-12,08:01～09:00,0.0661,0.0592,0.0622,
足立 (Adachi),2012-07-12,07:01～08:00,0.0655,0.0588,0.0616,
足立 (Adachi),2012-07-12,06:01～07:00,0.0658,0.0581,0.0627,
足立 (Adachi),2012-07-12,05:01～06:00,0.0674,0.0594,0.0633,
足立 (Adachi),2012-07-12,04:01～05:00,0.0670,0.0581,0.0633,
足立 (Adachi),2012-07-12,03:01～04:00,0.0666,0.0594,0.0632,
足立 (Adachi),2012-07-12,02:01～03:00,0.0673,0.0599,0.0632,
足立 (Adachi),2012-07-12,01:01～02:00,0.0668,0.0601,0.0634,
足立 (Adachi),2012-07-12,00:01～01:00,0.0666,0.0584,0.0633,
足立 (Adachi),2012-07-11,23:01～24:00,0.0673,0.0606,0.0634,
足立 (Adachi),2012-07-11,22:01～23:00,0.0682,0.0607,0.0637,
足立 (Adachi),2012-07-11,21:01～22:00,0.0661,0.0603,0.0632,
足立 (Adachi),2012-07-11,20:01～21:00,0.0664,0.0592,0.0629,
足立 (Adachi),2012-07-11,19:01～20:00,0.0660,0.0593,0.0634,
足立 (Adachi),2012-07-11,18:01～19:00,0.0682,0.0605,0.0643,
足立 (Adachi),2012-07-11,17:01～18:00,0.0680,0.0599,0.0636,
足立 (Adachi),2012-07-11,16:01～17:00,0.0681,0.0597,0.0636,
足立 (Adachi),2012-07-11,15:01～16:00,0.0681,0.0598,0.0637,
足立 (Adachi),2012-07-11,14:01～15:00,0.0675,0.0598,0.0641,
足立 (Adachi),2012-07-11,13:01～14:00,0.0669,0.0605,0.0635,
足立 (Adachi),2012-07-11,12:01～13:00,0.0670,0.0588,0.0636,
足立 (Adachi),2012-07-11,11:01～12:00,0.0669,0.0598,0.0634,
足立 (Adachi),2012-07-11,10:01～11:00,0.0680,0.0588,0.0632,
足立 (Adachi),2012-07-11,09:01～10:00,0.0654,0.0587,0.0629,
足立 (Adachi),2012-07-11,08:01～09:00,0.0662,0.0587,0.0624,
足立 (Adachi),2012-07-11,07:01～08:00,0.0651,0.0598,0.0624,
足立 (Adachi),2012-07-11,06:01～07:00,0.0648,0.0585,0.0616,
足立 (Adachi),2012-07-11,05:01～06:00,0.0666,0.0587,0.0624,
足立 (Adachi),2012-07-11,04:01～05:00,0.0671,0.0592,0.0631,
足立 (Adachi),2012-07-11,03:01～04:00,0.0658,0.0590,0.0631,
足立 (Adachi),2012-07-11,02:01～03:00,0.0659,0.0597,0.0635,
足立 (Adachi),2012-07-11,01:01～02:00,0.0671,0.0605,0.0635,
足立 (Adachi),2012-07-11,00:01～01:00,0.0666,0.0601,0.0633,
足立 (Adachi),2012-07-10,23:01～24:00,0.0672,0.0597,0.0635,
足立 (Adachi),2012-07-10,22:01～23:00,0.0669,0.0602,0.0630,
足立 (Adachi),2012-07-10,21:01～22:00,0.0682,0.0591,0.0634,
足立 (Adachi),2012-07-10,20:01～21:00,0.0671,0.0600,0.0633,
足立 (Adachi),2012-07-10,19:01～20:00,0.0668,0.0592,0.0633,
足立 (Adachi),2012-07-10,18:01～19:00,0.0681,0.0598,0.0633,
足立 (Adachi),2012-07-10,17:01～18:00,0.0666,0.0587,0.0634,
足立 (Adachi),2012-07-10,16:01～17:00,0.0667,0.0612,0.0635,
足立 (Adachi),2012-07-10,15:01～16:00,0.0689,0.0588,0.0630,
足立 (Adachi),2012-07-10,14:01～15:00,0.0664,0.0581,0.0633,
足立 (Adachi),2012-07-10,13:01～14:00,0.0663,0.0597,0.0628,
足立 (Adachi),2012-07-10,12:01～13:00,0.0651,0.0589,0.0619,
足立 (Adachi),2012-07-10,11:01～12:00,0.0659,0.0581,0.0629,
足立 (Adachi),2012-07-10,10:01～11:00,0.0669,0.0590,0.0628,
足立 (Adachi),2012-07-10,09:01～10:00,0.0662,0.0591,0.0625,
足立 (Adachi),2012-07-10,08:01～09:00,0.0665,0.0580,0.0623,
足立 (Adachi),2012-07-10,07:01～08:00,0.0660,0.0580,0.0621,
足立 (Adachi),2012-07-10,06:01～07:00,0.0652,0.0582,0.0618,
足立 (Adachi),2012-07-10,05:01～06:00,0.0665,0.0588,0.0625,
足立 (Adachi),2012-07-10,04:01～05:00,0.0681,0.0591,0.0621,
足立 (Adachi),2012-07-10,03:01～04:00,0.0662,0.0591,0.0620,
足立 (Adachi),2012-07-10,02:01～03:00,0.0672,0.0581,0.0619,
足立 (Adachi),2012-07-10,01:01～02:00,0.0661,0.0592,0.0625,
足立 (Adachi),2012-07-10,00:01～01:00,0.0678,0.0598,0.0625,
足立 (Adachi),2012-07-09,23:01～24:00,0.0661,0.0591,0.0624,
足立 (Adachi),2012-07-09,22:01～23:00,0.0654,0.0591,0.0627,
足立 (Adachi),2012-07-09,21:01～22:00,0.0653,0.0594,0.0623,
足立 (Adachi),2012-07-09,20:01～21:00,0.0661,0.0593,0.0625,
足立 (Adachi),2012-07-09,19:01～20:00,0.0668,0.0581,0.0622,
足立 (Adachi),2012-07-09,18:01～19:00,0.0664,0.0584,0.0621,
足立 (Adachi),2012-07-09,17:01～18:00,0.0667,0.0596,0.0628,
足立 (Adachi),2012-07-09,16:01～17:00,0.0658,0.0588,0.0630,
足立 (Adachi),2012-07-09,15:01～16:00,0.0661,0.0591,0.0626,
足立 (Adachi),2012-07-09,14:01～15:00,0.0664,0.0593,0.0623,
足立 (Adachi),2012-07-09,13:01～14:00,0.0655,0.0585,0.0624,
足立 (Adachi),2012-07-09,12:01～13:00,0.0650,0.0578,0.0619,
足立 (Adachi),2012-07-09,11:01～12:00,0.0656,0.0586,0.0618,
足立 (Adachi),2012-07-09,10:01～11:00,0.0659,0.0580,0.0612,
足立 (Adachi),2012-07-09,09:01～10:00,0.0654,0.0579,0.0613,
足立 (Adachi),2012-07-09,08:01～09:00,0.0641,0.0574,0.0608,
足立 (Adachi),2012-07-09,07:01～08:00,0.0647,0.0553,0.0605,
足立 (Adachi),2012-07-09,06:01～07:00,0.0628,0.0563,0.0598,
足立 (Adachi),2012-07-09,05:01～06:00,0.0657,0.0567,0.0611,
足立 (Adachi),2012-07-09,04:01～05:00,0.0645,0.0572,0.0612,
足立 (Adachi),2012-07-09,03:01～04:00,0.0649,0.0579,0.0616,
足立 (Adachi),2012-07-09,02:01～03:00,0.0650,0.0584,0.0617,
足立 (Adachi),2012-07-09,01:01～02:00,0.0653,0.0589,0.0620,
足立 (Adachi),2012-07-09,00:01～01:00,0.0643,0.0583,0.0612,
